TimeEDT,TemperatureF,Dew PointF,Humidity,Sea Level PressureIn,VisibilityMPH,Wind Direction,Wind SpeedMPH,Gust SpeedMPH,PrecipitationIn,Events,Conditions,WindDirDegrees,DateUTC
12:33 AM,47.3,41.4,80,30.07,10.0,SSE,5.8,-,N/A,,Clear,160,2012-10-22 04:33:00
12:52 AM,48.4,41.9,78,30.06,10.0,South,6.9,-,N/A,,Clear,170,2012-10-22 04:52:00
1:12 AM,49.3,42.3,77,30.06,10.0,South,5.8,-,N/A,,Clear,170,2012-10-22 05:12:00
1:52 AM,49.1,42.8,79,30.06,10.0,SSE,5.8,-,N/A,,Clear,160,2012-10-22 05:52:00
2:12 AM,48.6,42.8,80,30.06,10.0,SSE,3.5,-,N/A,,Clear,160,2012-10-22 06:12:00
2:32 AM,47.3,42.1,82,30.07,10.0,Calm,Calm,-,N/A,,Clear,0,2012-10-22 06:32:00
2:52 AM,47.1,42.3,83,30.06,10.0,SSE,3.5,-,N/A,,Clear,150,2012-10-22 06:52:00
3:12 AM,46.4,42.6,87,30.06,10.0,SSE,3.5,-,N/A,,Clear,160,2012-10-22 07:12:00
3:32 AM,45.7,42.1,87,30.06,10.0,SSE,4.6,-,N/A,,Clear,150,2012-10-22 07:32:00
3:52 AM,46.2,42.4,87,30.06,10.0,SSE,4.6,-,N/A,,Clear,160,2012-10-22 07:52:00
4:12 AM,46.4,42.8,87,30.06,10.0,SE,3.5,-,N/A,,Clear,140,2012-10-22 08:12:00
4:52 AM,47.3,43.3,86,30.06,10.0,SSE,4.6,-,N/A,,Clear,160,2012-10-22 08:52:00
5:12 AM,47.3,43.3,86,30.06,10.0,SSE,5.8,-,N/A,,Clear,160,2012-10-22 09:12:00
5:32 AM,46.8,43.2,87,30.05,7.0,SSE,4.6,-,N/A,,Clear,150,2012-10-22 09:32:00
5:52 AM,46.8,43.5,88,30.05,7.0,SSE,5.8,-,N/A,,Clear,160,2012-10-22 09:52:00
6:12 AM,47.3,43.9,88,30.05,7.0,South,5.8,-,N/A,,Clear,170,2012-10-22 10:12:00
6:32 AM,47.7,43.9,87,30.06,7.0,SSE,4.6,-,N/A,,Clear,160,2012-10-22 10:32:00
6:52 AM,47.8,43.9,86,30.05,7.0,South,5.8,-,N/A,,Clear,170,2012-10-22 10:52:00
7:12 AM,48.2,44.1,86,30.06,7.0,South,4.6,-,N/A,,Clear,170,2012-10-22 11:12:00
7:32 AM,48.0,44.1,86,30.06,7.0,SSE,5.8,-,N/A,,Clear,160,2012-10-22 11:32:00
7:52 AM,48.2,44.2,86,30.06,7.0,SSE,4.6,-,N/A,,Clear,160,2012-10-22 11:52:00
8:13 AM,47.5,44.1,88,30.05,5.0,South,5.8,-,N/A,,Clear,170,2012-10-22 12:13:00
8:32 AM,49.1,44.8,85,30.06,7.0,South,3.5,-,N/A,,Clear,170,2012-10-22 12:32:00
8:52 AM,50.0,45.5,85,30.06,7.0,South,5.8,-,N/A,,Clear,170,2012-10-22 12:52:00
9:13 AM,51.4,46.6,83,30.06,7.0,South,5.8,-,N/A,,Clear,170,2012-10-22 13:13:00
9:32 AM,52.9,47.1,81,30.06,10.0,South,6.9,-,N/A,,Clear,170,2012-10-22 13:32:00
9:52 AM,54.9,48.4,79,30.06,10.0,South,5.8,-,N/A,,Clear,170,2012-10-22 13:52:00
10:13 AM,56.8,48.9,75,30.06,10.0,South,6.9,-,N/A,,Clear,170,2012-10-22 14:13:00
10:32 AM,59.0,50.2,73,30.06,10.0,SSE,8.1,-,N/A,,Clear,160,2012-10-22 14:32:00
10:52 AM,59.9,50.7,72,30.06,10.0,South,5.8,-,N/A,,Mostly Cloudy,170,2012-10-22 14:52:00
11:13 AM,60.4,50.7,70,30.06,10.0,SSE,4.6,-,N/A,,Overcast,150,2012-10-22 15:13:00
11:32 AM,62.6,52.5,70,30.05,10.0,Calm,Calm,-,N/A,,Mostly Cloudy,0,2012-10-22 15:32:00
11:52 AM,64.6,53.1,66,30.05,10.0,Calm,Calm,-,N/A,,Mostly Cloudy,0,2012-10-22 15:52:00
12:12 PM,66.4,54.0,64,30.05,10.0,Calm,Calm,-,N/A,,Mostly Cloudy,0,2012-10-22 16:12:00
12:32 PM,68.4,55.4,63,30.05,10.0,South,3.5,-,N/A,,Overcast,170,2012-10-22 16:32:00
12:52 PM,70.2,56.8,63,30.04,10.0,SSE,5.8,-,N/A,,Scattered Clouds,160,2012-10-22 16:52:00
1:12 PM,70.7,57.0,62,30.04,10.0,SW,8.1,-,N/A,,Mostly Cloudy,230,2012-10-22 17:12:00
1:32 PM,70.0,57.2,64,30.02,10.0,South,5.8,-,N/A,,Overcast,170,2012-10-22 17:32:00
1:52 PM,70.0,57.4,64,30.02,10.0,South,3.5,-,N/A,,Overcast,180,2012-10-22 17:52:00
2:12 PM,70.2,57.6,64,30.02,10.0,South,6.9,-,N/A,,Overcast,170,2012-10-22 18:12:00
2:32 PM,70.7,57.6,63,30.01,10.0,SSE,6.9,-,N/A,,Overcast,160,2012-10-22 18:32:00
2:53 PM,71.2,59.0,65,30.00,10.0,SSE,9.2,-,N/A,,Mostly Cloudy,150,2012-10-22 18:53:00
3:12 PM,71.1,58.6,65,29.99,10.0,SSE,9.2,-,N/A,,Overcast,160,2012-10-22 19:12:00
3:33 PM,70.9,58.6,65,29.99,10.0,SSE,11.5,-,N/A,,Overcast,160,2012-10-22 19:33:00
3:53 PM,71.1,58.6,65,29.99,10.0,SSE,8.1,-,N/A,,Overcast,150,2012-10-22 19:53:00
4:12 PM,71.4,57.7,62,29.98,10.0,SSE,9.2,-,N/A,,Overcast,160,2012-10-22 20:12:00
4:33 PM,69.3,58.8,69,29.99,10.0,SSW,5.8,-,N/A,Rain,Light Rain,210,2012-10-22 20:33:00
4:52 PM,68.9,58.1,68,29.98,10.0,SSW,4.6,-,N/A,,Overcast,200,2012-10-22 20:52:00
5:12 PM,68.4,57.9,69,29.96,10.0,South,3.5,-,N/A,,Scattered Clouds,170,2012-10-22 21:12:00
5:33 PM,68.7,56.1,64,29.98,10.0,SSW,4.6,-,N/A,,Scattered Clouds,200,2012-10-22 21:33:00
5:52 PM,68.4,55.8,64,29.97,10.0,South,3.5,-,N/A,,Clear,170,2012-10-22 21:52:00
6:12 PM,67.3,56.3,68,29.97,10.0,Calm,Calm,-,N/A,,Clear,0,2012-10-22 22:12:00
6:33 PM,65.8,56.3,71,29.96,10.0,Calm,Calm,-,N/A,,Clear,0,2012-10-22 22:33:00
6:52 PM,64.4,56.3,75,29.96,10.0,Calm,Calm,-,N/A,,Scattered Clouds,0,2012-10-22 22:52:00
7:12 PM,64.8,55.4,72,29.98,10.0,Calm,Calm,-,N/A,,Mostly Cloudy,0,2012-10-22 23:12:00
7:33 PM,64.2,55.6,73,29.99,10.0,Calm,Calm,-,N/A,,Overcast,0,2012-10-22 23:33:00
7:52 PM,64.9,55.4,71,29.99,10.0,Calm,Calm,-,N/A,,Overcast,0,2012-10-22 23:52:00
8:12 PM,64.4,57.0,77,29.99,7.0,Calm,Calm,-,N/A,Rain,Rain,0,2012-10-23 00:12:00
8:33 PM,64.4,57.7,79,29.98,5.0,South,3.5,-,N/A,Rain,Rain,180,2012-10-23 00:33:00
8:52 PM,61.3,58.3,90,29.99,10.0,South,5.8,-,N/A,Rain,Light Rain,170,2012-10-23 00:52:00
9:12 PM,61.3,58.8,91,29.97,10.0,ESE,5.8,-,N/A,,Light Drizzle,110,2012-10-23 01:12:00
9:52 PM,61.7,58.5,89,29.96,10.0,ESE,8.1,-,N/A,,Overcast,120,2012-10-23 01:52:00
10:12 PM,61.7,58.5,89,29.95,10.0,ESE,3.5,-,N/A,,Overcast,120,2012-10-23 02:12:00
10:33 PM,61.3,58.3,90,29.97,7.0,Calm,Calm,-,N/A,Rain,Rain,0,2012-10-23 02:33:00
10:52 PM,60.6,58.1,91,29.97,4.0,Calm,Calm,-,N/A,Rain,Heavy Rain,0,2012-10-23 02:52:00
11:13 PM,60.8,58.6,93,29.97,4.0,East,5.8,-,N/A,Rain,Rain,90,2012-10-23 03:13:00
11:33 PM,60.8,58.8,93,29.97,5.0,NE,6.9,-,N/A,Rain,Light Rain,40,2012-10-23 03:33:00
11:52 PM,60.8,59.0,94,29.99,3.0,NE,9.2,-,N/A,Rain,Heavy Rain,50,2012-10-23 03:52:00